COSMOS 1261 DEB, 12892

Orbit data source: Space-Track

COSMOS 1261 DEB, 12892 is space debris originally from a launch on Tue, 31 Mar 1981 UTC launched from the Plesetsk Missile And Space Complex (PKMTR). Debris objects in space refer to the collection of defunct objects orbiting the Earth. Examples of debris include non-operational satellites, rocket bodies, and fragments generated from explosions, collisions, or faulty payload assembly.

Loading next visibility...
Identifier
12892, 1981-031E
Orbit
Molniya
Country
Flag of CISCIS
Related business
Manufacturer
Unknown
Mission
Spacecraft
Bus & Motor
Unknown
Mass
Unknown
Launch date (UTC)
1981-03-31 (44 years ago)
Launch vehicle
Unknown
Launch site
Plesetsk Missile And Space Complex (PKMTR)
Object type
Payload
Rocket body
Debris
Shape & HBR
Unknown
Radar Cross Section
1.500 m², Large (>1 m²)

Expand to show TLE details & history
Last TLE update: 2 days ago

TLE from 2 days ago
0 COSMOS 1261 DEB
1 12892U 81031E   25257.07899144 -.00001457  00000-0 -41495-3 0  9993
2 12892  62.1844 130.6799 7430665  42.2974 355.6460  2.00206196253873
Epoch: 2025-09-14T01:53Z
TLE epoch observation values (Epoch: 2025-09-14T01:53:44.86Z)
Latitude
0.00026°
Longitude
108.97869°
Altitude
1,286.397 km
Speed
9.436 km/s
True Right ascension
08h 42m 52s
True Declination
0° 00' 01"
Sunlit
Object was in daylight at epoch
Visualization orbit readout
Latitude
Unknown
Longitude
Unknown
Altitude
Unknown
Speed
Unknown
Apparent Right ascension
Unknown
Apparent Declination
Unknown
Sunlit
N/A
Visualization observer readout
Local Sidereal Time
19:03:44
Azimuth
Unknown
Elevation
Unknown
Doppler factor
Unknown
Orbital elements
Apogee altitude
39,971.756 km
Perigee altitude
453.983 km
Semi-major axis
26,591.007 km
Eccentricity
0.74307
Inclination
62.1844°
RAAN
130.6799°
Arg. of periapsis
42.2974°
True anomaly
319.06104°
Mean anomaly
355.646°
Eccentric anomaly
343.68861°
Mean motion
0.50054 °/min
Orbital period
719.22 mins
BSTAR
-0.00041495
Loading maneuver chart data...
Computing Atmospheric mass density...
Loading historical data...
Loading historical data...
Loading historical data...
Loading historical data...
Loading historical data...
Loading historical data...
Loading historical data...

Documentation

Showing up to 5 results
|